MOHAMMED VI-B (43717 NORAD) Tracking and Keplerian Element Data

This shows tracking and keplerian element data for the satellite.

Feedback or suggestion? Click here.




ElementValue
Catalog43717
NameMOHAMMED VI-B
Epoch Orbit33056
Epoch Day35.34153883
Epoch Year2025
RAAN109.8132
Inclination97.9503
Eccentricity0.0001496
Argument of Perigee82.9268
Mean Anonmoly277.2112
Mean Motion14.77025963
Decay Rate2.006E-05
L11 43717U 18095A 25035.34153883 .00002006 63310-9 28484-3 0 9994
L22 43717 97.9503 109.8132 0001496 82.9268 277.2112 14.77025963330569



Live tracking and technical data element details for MOHAMMED VI-B (NORAD 43717). MOHAMMED VI-B can be tracked NOW for your location showing map with azimuth and elevation plus other details from your city location.







IsCatalogInMostPopularTable: catalog: 43717, numindb: 291
Update: records affected: 1



GetName: 43717 MOHAMMED VI-B

Hit Count: updated at: Thu, 15 May 2025 18:58:53 GMT